Volver al catálogo

STARLINK-3329

ActivoComunicacionesVLEO
NORAD 50827·PAYLOAD·🇺🇸 United States

Lanzado Jan 6, 2022 desde Cape Canaveral Space Force Station

Loading…

Próximos Pases (próximas 24 horas)

TLE

ActualizadoSource: CelesTrak SupGP

Época: Sep 15, 2026, 02:17 UTC

1 50827C 22001AA  26258.09562500 -.00011898  00000+0 -35167-3 0  2588
2 50827  53.1607  26.6366 0001188  86.9647 226.7632 15.34383391    12

Sigue STARLINK-3329 en tiempo real con AllMySat

Download on the App Store